User: anonymous   Login
Location: Arboyeti
(42.1122°N, 44.6017°E)
Time: 01:14:40
(UTC+00:00)
Language:

SJ 16-02 - Orbit

View from above orbital plane
View from above orbital plane
View from above satellite
View from above satellite

Ground track
Ground track

The orbit data is extracted from the following two-line orbital elements,

1 41634U 16043A   21173.89783148  .00000204  00000-0  26564-4 0  9997
2 41634  75.0037 100.0137 0007408 134.9489 225.2353 14.85811593270254
Epoch (UTC): 22 June 2021 21:32:52
Eccentricity: 0.0007408
inclination: 75.0037°
perigee height: 606 km
apogee height: 616 km
right ascension of ascending node: 100.0137°
argument of perigee: 134.9489°
revolutions per day: 14.85811593
mean anomaly at epoch: 225.2353°
orbit number at epoch: 27025

The dashed part of the orbit path shows where the satellite is in the earth's shadow,  

DLR